Location: Gro�wechsungen
(51.4926°N, 10.6901°E)
Time: 14:26:14
(UTC+00:00)

Cosmos 2082 Rocket - Pass Details

Date: 25 January 2021
Orbit: 832 x 854 km, 71.0° (Epoch: 04 March)

Event Time Altitude Azimuth Distance (km) Brightness Sun altitude
Rises 16:35:04 0° 329° (NNW) 3,438 5.5 -6.5°
Reaches altitude 10° 16:38:08 10° 345° (NNW) 2,499 4.6 -6.9°
Maximum altitude 16:42:30 22° 35° (NE) 1,796 3.5 -7.6°
Drops below altitude 10° 16:46:52 10° 85° (E) 2,486 4.0 -8.2°
Enters shadow 16:47:19 - 88° (E) 2,613 4.1 -8.3°
